Regional Weather Roundup
Issued by NWS

Home | Current Version | Previous Version | Graphics & Text | Print | Product List | Glossary On
Versions: 1 2 3 4 5 6 7 8 9 10 11 12 13 14 15 16 17 18 19 20 21 22 23 24 25 26 27 28 29 30 31 32 33 34 35 36 37 38 39 40 41 42 43 44 45 46 47 48 49 50
000
ASUS45 KPSR 241210
RWRAZ

ARIZONA HOURLY REGIONAL WEATHER ROUNDUP
NATIONAL WEATHER SERVICE PHOENIX AZ
500 AM MST FRI NOV 24 2017

NOTE: FAIR INDICATES FEW OR NO CLOUDS BELOW 12,000 FEET WITH NO
SIGNIFICANT WEATHER AND/OR OBSTRUCTIONS TO VISIBILITY.

AZZ001>003-036-241300-
NORTHWEST ARIZONA

CITY           SKY/WX    TMP DP  RH WIND       PRES   REMARKS
BULLHEAD CITY  CLEAR     59  34  38 CALM      29.92S
KINGMAN        CLEAR     46  28  49 S5        30.02F
6HR MIN TEMP:  44; 6HR MAX TEMP:  50;

$$

AZZ004>008-015-016-018-241300-
NORTH CENTRAL ARIZONA

CITY           SKY/WX    TMP DP  RH WIND       PRES   REMARKS
GRAND CANYON   PTCLDY    25  13  60 E3        30.20S
6HR MIN TEMP:  24; 6HR MAX TEMP:  29;

WILLIAMS       PTCLDY    36  19  51 S9        30.20S WCI  29
PRESCOTT       PTCLDY    42  27  55 S3        30.12F
6HR MIN TEMP:  40; 6HR MAX TEMP:  49;

FLAGSTAFF      PTCLDY    29  21  72 CALM      30.21F
6HR MIN TEMP:  28; 6HR MAX TEMP:  31;

PAYSON         CLEAR     48  25  40 CALM      30.14F
PAGE           PTCLDY    42  31  64 CALM      30.09S
6HR MIN TEMP:  42; 6HR MAX TEMP:  49;

$$

AZZ009>014-017-241300-
NORTHEAST ARIZONA

CITY           SKY/WX    TMP DP  RH WIND       PRES   REMARKS
WINSLOW        MOCLDY    35  22  58 SE5       30.14F WCI  31
6HR MIN TEMP:  32; 6HR MAX TEMP:  41;

SAINT JOHNS    MOCLDY    27  15  61 NW6       30.17R WCI  20
6HR MIN TEMP:  26; 6HR MAX TEMP:  41;

WINDOW ROCK    MOCLDY    23  13  65 CALM      30.20S
6HR MIN TEMP:  22; 6HR MAX TEMP:  31;

SHOW LOW       PTCLDY    41  14  33 S8        30.20S
$$

AZZ540-542>544-546-548-241300-
GREATER PHOENIX AREA

CITY           SKY/WX    TMP DP  RH WIND       PRES   REMARKS
PHOENIX        PTCLDY    60  38  43 E8        29.92R
6HR MIN TEMP:  60; 6HR MAX TEMP:  68;

BUCKEYE        CLEAR     54  28  37 NW6       29.93R
LUKE AFB       CLEAR     53  36  54 N9        29.92R
6HR MIN TEMP:  53; 6HR MAX TEMP:  64;

DEER VALLEY    CLEAR     58  32  37 N3        29.94R
6HR MIN TEMP:  56; 6HR MAX TEMP:  68;

SCOTTSDALE     CLEAR     58  37  45 CALM      29.95R
6HR MIN TEMP:  57; 6HR MAX TEMP:  64;

MESA-GATEWAY   CLEAR     54  30  40 E7        29.95R
$$

AZZ539-553-241300-
SOUTHWEST MARICOPA COUNTY AND PINAL COUNTY

CITY           SKY/WX    TMP DP  RH WIND       PRES   REMARKS
CASA GRANDE    NOT AVBL
$$

AZZ503-504-507>509-241300-
SOUTHEAST ARIZONA

CITY           SKY/WX    TMP DP  RH WIND       PRES   REMARKS
TUCSON         CLEAR     53  25  33 S9        30.02F
6HR MIN TEMP:  53; 6HR MAX TEMP:  59;

DAVIS-MONTHAN  CLEAR     54  24  32 S8        30.00F
6HR MIN TEMP:  53; 6HR MAX TEMP:  60;

NOGALES        CLEAR     43  25  49 CALM      30.08S
6HR MIN TEMP:  43; 6HR MAX TEMP:  53;

SIERRA VISTA   PTCLDY    48  22  35 SE5       30.12S
6HR MIN TEMP:  48; 6HR MAX TEMP:  58;

DOUGLAS        PTCLDY    38  17  42 SE3       30.10S
6HR MIN TEMP:  32; 6HR MAX TEMP:  48;

SAFFORD        CLEAR     42  19  39 SE8       30.05F
6HR MIN TEMP:  38; 6HR MAX TEMP:  51;

$$

AZZ532-241300-
SOUTHWEST ARIZONA

CITY           SKY/WX    TMP DP  RH WIND       PRES   REMARKS
YUMA           PTCLDY    61  42  49 CALM      29.87S
6HR MIN TEMP:  60; 6HR MAX TEMP:  68;

$$

CAZ041-043-047-048-061-525>527-560>570-241300-
SOUTHERN CALIFORNIA

CITY           SKY/WX    TMP DP  RH WIND       PRES   REMARKS
DOWNTOWN L.A.  CLEAR     60  52  74 CALM      29.90S
6HR MIN TEMP:  60; 6HR MAX TEMP:  67;

L.A. AIRPORT   PTCLDY    62  55  77 CALM      29.90S
6HR MIN TEMP:  60; 6HR MAX TEMP:  68;

SAN DIEGO      PTCLDY    62  43  49 N3        29.92S
6HR MIN TEMP:  62; 6HR MAX TEMP:  69;

BURBANK        CLEAR     62  37  39 SW3       29.91S
6HR MIN TEMP:  60; 6HR MAX TEMP:  69;

ONTARIO        CLEAR     58  40  51 CALM      29.92F
6HR MIN TEMP:  57; 6HR MAX TEMP:  69;

RIVERSIDE      CLEAR     58  42  55 E3        29.93S
6HR MIN TEMP:  58; 6HR MAX TEMP:  67;

PALM SPRINGS   CLEAR     61  43  51 NW3       29.89F
6HR MIN TEMP:  61; 6HR MAX TEMP:  71;

EL CENTRO NAS  CLEAR     60  32  34 W6        29.88F
6HR MIN TEMP:  57; 6HR MAX TEMP:  66;

IMPERIAL       CLEAR     57  38  48 SW3       29.86S
6HR MIN TEMP:  57; 6HR MAX TEMP:  66;

BLYTHE         CLEAR     56  33  42 CALM      29.90F
6HR MIN TEMP:  54; 6HR MAX TEMP:  64;

NEEDLES        CLEAR     59  33  37 NW3       29.92S
6HR MIN TEMP:  58; 6HR MAX TEMP:  70;

$$

NVZ020-UTZ003-241300-
SOUTHERN NEVADA-UTAH

CITY           SKY/WX    TMP DP  RH WIND       PRES   REMARKS
LAS VEGAS      PTCLDY    55  36  48 CALM      29.96S
6HR MIN TEMP:  55; 6HR MAX TEMP:  62;

SALT LAKE CITY PTCLDY    47  44  90 W7        29.96S
6HR MIN TEMP:  46; 6HR MAX TEMP:  56; 6HR PCP: TRACE;

$$

NMZ009-TXZ055-241300-
NEW MEXICO-WEST TEXAS

CITY           SKY/WX    TMP DP  RH WIND       PRES   REMARKS
ALBUQUERQUE    CLOUDY    38  27  64 E3        30.11F
6HR MIN TEMP:  37; 6HR MAX TEMP:  53;

EL PASO        MOCLDY    44  27  51 CALM      30.06F
6HR MIN TEMP:  42; 6HR MAX TEMP:  53;

$$


........................KEY........................
SKY/WX - SKY CONDITION/WEATHER
TMP    - TEMPERATURE IN FAHRENHEIT
DP     - DEW POINT IN FAHRENHEIT
RH     - RELATIVE HUMIDITY IN PERCENT
WIND   - DIRECTION AND SPEED IN MILES PER HOUR (MPH)
VRB    - VARIABLE WIND DIRECTION
PRES   - MEAN SEA LEVEL PRESSURE IN INCHES OF MERCURY
         F - FALLING PRESSURE   R - RISING PRESSURE
         S - STEADY PRESSURE
VSB    - VISIBILITY IN MILES
HX     - HEAT INDEX IN FAHRENHEIT
WCI    - WIND CHILL INDEX IN FAHRENHEIT
TC     - TEMPERATURE IN CELSIUS WHICH IS ALSO KNOWN AS
         TEMPERATURE IN CENTIGRADE
AFB    - AIR FORCE BASE
         LUKE AFB IS LUKE AIR FORCE BASE
         DAVIS-MONTHAN IS DAVIS-MONTHAN AIR FORCE BASE
NAS    - NAVAL AIR STATION
         EL CENTRO NAS IS EL CENTRO NAVAL AIR STATION
N/A    - NOT AVAILABLE




USA.gov is the U.S. government's official web portal to all federal, state and local government web resources and services.